Weather History for KEWB - September, 2014

Change the Weather History Date:

Tuesday, September 2, 2014

  Actual Average Record
Temperature  
Mean Temperature 78 °F -  
Max Temperature 88 °F 78 °F 94 °F (1969)
Min Temperature 69 °F 61 °F 44 °F (2007)
Cooling Degree Days 13    
Growing Degree Days 28 (Base 50)    
Moisture  
Dew Point 71 °F    
Average Humidity 89    
Maximum Humidity 100    
Minimum Humidity 63    
Precipitation  
Precipitation 0.00 in - - ()
Sea Level Pressure  
Sea Level Pressure 29.88 in    
Wind  
Wind Speed 5 mph (SSW)    
Max Wind Speed 17 mph    
Max Gust Speed -    
Visibility 6 miles    
Events Fog    
Averages and records for this station are not official NWS values.
T = Trace of Precipitation, MM = Missing Value Source: NWS Daily Summary

Daily Weather History Graph

Daily Weather History Graph

Search for Another Location

Airport or City:

Trip Planner

Search our weather history database for the weather conditions in past years. The results will help you decide how hot, cold, wet, or windy it might be!

Date:

Astronomy

Sep. 02, 2014 Rise Set
Actual Time 6:10 AM EDT 7:15 PM EDT
Civil Twilight 5:42 AM EDT 7:43 PM EDT
Nautical Twilight 5:08 AM EDT 8:17 PM EDT
Astronomical Twilight 4:32 AM EDT 8:53 PM EDT
Moon 1:57 PM EDT (9/2) No Moon Set
Length of Visible Light 14h 01m
Length of Day
13h 04m
First Quarter, 52% of the Moon is Illuminated
Sep 2
First Quarter
Sep 8
Full
Sep 15
Last Quarter
Sep 24
New
Oct 1
First Quarter

Hourly Weather History & Observations

Time (EDT) Temp. Heat Index Dew Point Humidity Pressure Visibility Wind Dir Wind Speed Gust Speed Precip Events Conditions
12:53 AM 71.1 °F - 70.0 °F 96% 29.94 in 10.0 mi SW 3.5 mph - N/A   Clear
1:53 AM 70.0 °F - 69.1 °F 97% 29.93 in 6.0 mi Calm Calm - N/A   Clear
2:53 AM 70.0 °F - 69.1 °F 97% 29.91 in 7.0 mi Calm Calm - N/A   Mostly Cloudy
3:26 AM 69.1 °F - 68.0 °F 96% 29.91 in 5.0 mi Calm Calm - N/A   Mostly Cloudy
3:37 AM 69.1 °F - 68.0 °F 96% 29.91 in 4.0 mi SSW 3.5 mph - N/A   Mostly Cloudy
3:48 AM 69.8 °F - 69.8 °F 100% 29.91 in 1.5 mi South 4.6 mph - N/A   Overcast
3:53 AM 70.0 °F - 70.0 °F 100% 29.90 in 0.8 mi South 3.5 mph - N/A   Overcast
4:05 AM 70.0 °F - 70.0 °F 100% 29.90 in 1.8 mi South 3.5 mph - N/A   Overcast
4:12 AM 70.0 °F - 70.0 °F 100% 29.91 in 2.5 mi South 3.5 mph - N/A   Overcast
4:28 AM 70.0 °F - 70.0 °F 100% 29.90 in 1.2 mi South 3.5 mph - N/A   Overcast
4:49 AM 69.8 °F - 69.8 °F 100% 29.89 in 2.0 mi SSE 4.6 mph - N/A   Overcast
4:53 AM 70.0 °F - 70.0 °F 100% 29.89 in 1.5 mi SSE 4.6 mph - N/A   Overcast
5:21 AM 70.0 °F - 70.0 °F 100% 29.90 in 0.8 mi South 4.6 mph - N/A   Mist
5:53 AM 70.0 °F - 70.0 °F 100% 29.91 in 0.5 mi South 3.5 mph - N/A Fog Fog
6:26 AM 69.8 °F - 69.8 °F 100% 29.91 in 0.2 mi South 5.8 mph - N/A Fog Fog
6:53 AM 71.1 °F - 70.0 °F 96% 29.92 in 0.2 mi South 5.8 mph - N/A Fog Fog
7:08 AM 71.1 °F - 71.1 °F 100% 29.92 in 0.5 mi South 3.5 mph - N/A Fog Fog
7:53 AM 71.1 °F - 71.1 °F 100% 29.92 in 1.0 mi South 4.6 mph - N/A   Overcast
8:15 AM 72.0 °F - 72.0 °F 100% 29.93 in 2.5 mi South 4.6 mph - N/A   Overcast
8:24 AM 72.0 °F - 71.1 °F 97% 29.93 in 3.0 mi SSW 5.8 mph - N/A   Overcast
8:53 AM 73.0 °F - 72.0 °F 96% 29.93 in 9.0 mi SSW 5.8 mph - N/A   Overcast
9:24 AM 77.0 °F - 73.0 °F 88% 29.93 in 10.0 mi SW 6.9 mph - N/A   Partly Cloudy
9:53 AM 80.1 °F 84.2 °F 73.0 °F 79% 29.93 in 10.0 mi North - - N/A   Clear
10:53 AM 84.0 °F 91.2 °F 73.9 °F 72% 29.92 in 10.0 mi SSW 9.2 mph - N/A   Partly Cloudy
11:53 AM 87.1 °F 95.4 °F 73.9 °F 65% 29.89 in 10.0 mi South 9.2 mph - N/A   Partly Cloudy
12:53 PM 87.1 °F 94.5 °F 73.0 °F 63% 29.88 in 10.0 mi SSW 13.8 mph - N/A   Clear
1:53 PM 86.0 °F 92.2 °F 72.0 °F 63% 29.86 in 10.0 mi SSW 13.8 mph - N/A   Clear
2:53 PM 84.0 °F 90.2 °F 73.0 °F 69% 29.84 in 10.0 mi SSW 17.3 mph - N/A   Clear
3:53 PM 84.9 °F 91.4 °F 73.0 °F 67% 29.82 in 10.0 mi South 12.7 mph - N/A   Clear
4:53 PM 84.0 °F 89.0 °F 71.1 °F 65% 29.82 in 10.0 mi SW 11.5 mph - N/A   Clear
5:53 PM 82.0 °F 86.3 °F 71.1 °F 69% 29.83 in 10.0 mi SW 13.8 mph - N/A   Clear
6:53 PM 79.0 °F - 70.0 °F 74% 29.82 in 10.0 mi SW 16.1 mph - N/A   Clear
7:53 PM 75.0 °F - 71.1 °F 87% 29.81 in 10.0 mi South 8.1 mph - N/A   Clear
8:53 PM 73.0 °F - 71.1 °F 93% 29.81 in 9.0 mi SSW 6.9 mph - N/A   Clear
9:53 PM 73.9 °F - 71.1 °F 91% 29.79 in 10.0 mi SW 8.1 mph - N/A   Clear
10:53 PM 75.0 °F - 71.1 °F 87% 29.78 in 10.0 mi SW 10.4 mph - N/A   Clear
11:53 PM 75.0 °F - 70.0 °F 84% 29.77 in 10.0 mi SW 12.7 mph - N/A   Clear